User: anonymous   Login
Location: downtown San Diego
(32.7310°N, 117.1990°W)
Time: 05:44:16
(UTC-07:00)
Language:

Genesis I - Orbit

View from above orbital plane
View from above orbital plane
View from above satellite
View from above satellite

Ground track
Ground track

The orbit data is extracted from the following two-line orbital elements,

1 29252U 06029A   19114.66765499  .00000596  00000-0  38930-4 0  9992
2 29252  64.5047 234.3803 0051942 247.0002 112.5637 15.17668624704469
Epoch (UTC): 24 April 2019 16:01:25
Eccentricity: 0.0051942
inclination: 64.5047°
perigee height: 477 km
apogee height: 548 km
right ascension of ascending node: 234.3803°
argument of perigee: 247.0002°
revolutions per day: 15.17668624
mean anomaly at epoch: 112.5637°
orbit number at epoch: 70446

The dashed part of the orbit path shows where the satellite is in the earth's shadow,  

DLR